Location: Columbia
(38.9520°N, 92.3340°W)
Time: 07:34:14
(UTC-05:00)

Iridium 15 - Visible Passes

Search period start: 24 April 2018 00:00
Search period end: 04 May 2018 00:00
Orbit: 761 x 765 km, 86.4° (Epoch: 23 April)

Date Brightness Start Highest point End Pass type
(mag) Time Alt. Az. Time Alt. Az. Time Alt. Az.
24 Apr 6.0 03:49:44 62° SSE 03:50:30 75° E 03:55:38 10° N visible
24 Apr 7.9 05:29:55 10° W 05:31:29 11° WNW 05:33:03 10° NW visible
25 Apr 7.2 03:12:11 34° E 03:12:49 35° E 03:17:28 10° NNE visible
25 Apr 7.2 04:52:22 22° W 04:53:17 23° WNW 04:57:22 10° NNW visible
26 Apr 8.2 02:34:37 17° E 02:35:18 18° E 02:38:37 10° NE visible
26 Apr 6.2 04:14:47 46° WSW 04:15:15 48° W 04:20:14 10° N visible
27 Apr 5.9 03:37:12 79° SE 03:37:24 82° E 03:42:34 10° N visible
27 Apr 8.0 05:17:51 10° W 05:18:27 10° WNW 05:19:04 10° WNW visible
28 Apr 7.0 02:59:37 38° E 02:59:42 38° E 03:04:27 10° NNE visible
28 Apr 7.3 04:39:47 21° W 04:40:13 22° WNW 04:44:09 10° NNW visible
29 Apr 8.1 02:22:00 19° E 02:22:11 19° E 02:25:42 10° NE visible
29 Apr 6.4 04:02:10 44° W 04:02:11 44° W 04:07:06 10° N visible
30 Apr 5.9 03:24:33 82° NNE 03:24:33 82° NNE 03:29:29 10° N visible
01 May 7.0 02:46:55 41° ENE 02:46:55 41° ENE 02:51:25 10° NNE visible
01 May 7.4 04:27:05 20° W 04:27:11 20° WNW 04:30:55 10° NNW visible
02 May 8.0 02:09:16 21° ENE 02:09:16 21° ENE 02:12:46 10° NE visible
02 May 6.6 03:49:26 40° WNW 03:49:26 40° WNW 03:53:57 10° NNW visible
03 May 6.1 03:11:47 71° NNW 03:11:47 71° NNW 03:16:23 10° N visible
